Back to catalog

STARLINK-6205

AliveCommunicationsVLEO
NORAD 56898·PAYLOAD·🇺🇸 United States

Launched Jun 12, 2023 from Cape Canaveral Space Force Station

Loading…

Next Passes (next 24 hours)

TLE

FreshSource: CelesTrak SupGP

Epoch: Sep 14, 2026, 14:39 UTC

1 56898C 23083Y   26257.61090278 -.00004305  00000+0 -15587-3 0  2576
2 56898  42.9999  95.1079 0001656 251.3837 354.2463 15.27590577    14

Track STARLINK-6205 in real time with AllMySat

Download on the App Store